Hourly Weather Barma

Today, 18 April, Sunday

Time Temperature Precipitation Wind Pressure Humidity
00:00 +8°C° 1.7 mm 3 mps 744 mmHg 92%
01:00 +7°C° 1 mm 2 mps 744 mmHg 92%
02:00 +7°C° 1 mm 2 mps 745 mmHg 92%
03:00 +8°C° 1 mm 1 mps 745 mmHg 92%
04:00 +8°C° 0.1 mm 1 mps 745 mmHg 92%
05:00 +7°C° 0.1 mm 1 mps 745 mmHg 93%
06:00 +7°C° 0.1 mm 1 mps 745 mmHg 93%
07:00 +8°C° 0 mm 1 mps 745 mmHg 88%
08:00 +9°C° 0 mm 1 mps 746 mmHg 82%
09:00 +9°C° 0 mm 1 mps 746 mmHg 77%
10:00 +9°C° 0.2 mm 2 mps 746 mmHg 72%
11:00 +10°C° 0.2 mm 2 mps 746 mmHg 68%
12:00 +11°C° 0.2 mm 3 mps 746 mmHg 64%
13:00 +11°C° 0.4 mm 3 mps 746 mmHg 63%
14:00 +11°C° 0.4 mm 3 mps 746 mmHg 63%
15:00 +11°C° 0.4 mm 3 mps 746 mmHg 62%
16:00 +11°C° 0.4 mm 3 mps 746 mmHg 64%
17:00 +10°C° 0.4 mm 3 mps 746 mmHg 66%
18:00 +10°C° 0.4 mm 3 mps 746 mmHg 69%
19:00 +10°C° 0.1 mm 3 mps 746 mmHg 71%
20:00 +9°C° 0.1 mm 3 mps 746 mmHg 74%
21:00 +8°C° 0.1 mm 3 mps 746 mmHg 77%
22:00 +8°C° 0 mm 3 mps 746 mmHg 81%
23:00 +7°C° 0 mm 3 mps 747 mmHg 85%

Tomorrow, 19 April, Monday

Time Temperature Precipitation Wind Pressure Humidity
00:00 +7°C° 0 mm 3 mps 747 mmHg 88%
01:00 +6°C° 0.1 mm 4 mps 747 mmHg 90%
02:00 +5°C° 0.1 mm 4 mps 747 mmHg 93%
03:00 +5°C° 0.1 mm 4 mps 747 mmHg 95%
04:00 +5°C° 0.2 mm 5 mps 747 mmHg 94%
05:00 +5°C° 0.2 mm 5 mps 747 mmHg 93%
06:00 +4°C° 0.2 mm 6 mps 747 mmHg 92%
07:00 +4°C° 0.3 mm 6 mps 747 mmHg 92%
08:00 +4°C° 0.3 mm 6 mps 747 mmHg 92%
09:00 +4°C° 0.3 mm 6 mps 747 mmHg 93%
10:00 +4°C° 0.6 mm 6 mps 747 mmHg 93%
11:00 +3°C° 0.6 mm 6 mps 747 mmHg 94%
12:00 +3°C° 0.6 mm 6 mps 747 mmHg 94%
13:00 +2°C° 0.2 mm 6 mps 747 mmHg 95%
14:00 +2°C° 0.2 mm 6 mps 747 mmHg 95%
15:00 +1°C° 0.2 mm 6 mps 747 mmHg 95%
16:00 +1°C° 0.1 mm 6 mps 747 mmHg 96%
17:00 +1°C° 0.1 mm 6 mps 747 mmHg 96%
18:00 +1°C° 0.1 mm 6 mps 747 mmHg 96%
19:00 +2°C° 0 mm 6 mps 747 mmHg 95%
20:00 +2°C° 0 mm 6 mps 747 mmHg 94%
21:00 +2°C° 0 mm 6 mps 747 mmHg 93%
22:00 +2°C° 0.4 mm 6 mps 747 mmHg 94%
23:00 +2°C° 0.4 mm 6 mps 747 mmHg 95%

Day after tomorrow, 20 April, Tuesday

Time Temperature Precipitation Wind Pressure Humidity
00:00 +2°C° 0.4 mm 6 mps 747 mmHg 96%
01:00 +2°C° 0.7 mm 6 mps 747 mmHg 96%
02:00 +2°C° 0.7 mm 6 mps 746 mmHg 96%
03:00 +2°C° 0.7 mm 6 mps 746 mmHg 96%
04:00 +2°C° 0.1 mm 6 mps 746 mmHg 95%
05:00 +2°C° 0.1 mm 6 mps 746 mmHg 94%
06:00 +3°C° 0.1 mm 6 mps 746 mmHg 93%
07:00 +3°C° 0 mm 6 mps 746 mmHg 93%
08:00 +3°C° 0 mm 6 mps 746 mmHg 93%
09:00 +3°C° 0 mm 7 mps 746 mmHg 93%
10:00 +4°C° 0.1 mm 7 mps 746 mmHg 91%
11:00 +4°C° 0.1 mm 6 mps 746 mmHg 88%
12:00 +5°C° 0.1 mm 6 mps 745 mmHg 86%
13:00 +4°C° 0.1 mm 7 mps 745 mmHg 87%
14:00 +4°C° 0.1 mm 7 mps 744 mmHg 89%
15:00 +2°C° 0.1 mm 8 mps 744 mmHg 90%
16:00 +2°C° 0.5 mm 8 mps 743 mmHg 90%
17:00 +2°C° 0.5 mm 9 mps 742 mmHg 89%
18:00 +3°C° 0.5 mm 9 mps 742 mmHg 89%
19:00 +3°C° 2.7 mm 10 mps 741 mmHg 90%
20:00 +3°C° 2.7 mm 11 mps 740 mmHg 91%
21:00 +3°C° 2.7 mm 12 mps 738 mmHg 91%
22:00 +3°C° 3.1 mm 12 mps 737 mmHg 91%
23:00 +3°C° 3.1 mm 12 mps 736 mmHg 91%

21 April, Wednesday

Time Temperature Precipitation Wind Pressure Humidity
00:00 +3°C° 3.1 mm 11 mps 735 mmHg 91%
01:00 +3°C° 0.3 mm 11 mps 735 mmHg 91%
02:00 +3°C° 0.3 mm 11 mps 734 mmHg 91%
03:00 +5°C° 0.3 mm 10 mps 734 mmHg 92%
04:00 +5°C° 0.1 mm 10 mps 734 mmHg 91%
05:00 +6°C° 0.1 mm 9 mps 733 mmHg 90%
06:00 +6°C° 0.1 mm 9 mps 733 mmHg 90%
07:00 +6°C° 0.2 mm 9 mps 733 mmHg 90%
08:00 +6°C° 0.2 mm 8 mps 733 mmHg 90%
09:00 +6°C° 0.2 mm 8 mps 733 mmHg 90%
10:00 +5°C° 0.4 mm 8 mps 733 mmHg 90%
11:00 +5°C° 0.4 mm 8 mps 734 mmHg 90%
12:00 +4°C° 0.4 mm 8 mps 734 mmHg 89%
13:00 +3°C° 0.1 mm 9 mps 735 mmHg 90%
14:00 +2°C° 0.1 mm 9 mps 736 mmHg 90%
15:00 +2°C° 0.1 mm 9 mps 737 mmHg 91%
16:00 +2°C° 0 mm 9 mps 738 mmHg 88%
17:00 +2°C° 0 mm 8 mps 739 mmHg 85%
18:00 +4°C° 0 mm 8 mps 740 mmHg 82%
19:00 +4°C° 0 mm 7 mps 741 mmHg 83%
20:00 +4°C° 0 mm 6 mps 742 mmHg 84%
21:00 +4°C° 0 mm 6 mps 743 mmHg 85%
22:00 +5°C° 0 mm 5 mps 743 mmHg 85%
23:00 +5°C° 0 mm 5 mps 744 mmHg 85%

22 April, Thursday

Time Temperature Precipitation Wind Pressure Humidity
00:00 +5°C° 0 mm 4 mps 744 mmHg 86%
01:00 +5°C° 0 mm 4 mps 744 mmHg 86%
02:00 +4°C° 0 mm 4 mps 745 mmHg 86%
03:00 +4°C° 0 mm 4 mps 745 mmHg 86%
04:00 +4°C° 0 mm 4 mps 746 mmHg 86%
05:00 +4°C° 0 mm 3 mps 746 mmHg 86%
06:00 +4°C° 0 mm 3 mps 746 mmHg 85%
07:00 +5°C° 0 mm 3 mps 747 mmHg 80%
08:00 +7°C° 0 mm 3 mps 747 mmHg 74%
09:00 +7°C° 0 mm 4 mps 748 mmHg 68%
10:00 +8°C° 0 mm 4 mps 748 mmHg 62%
11:00 +10°C° 0 mm 4 mps 748 mmHg 56%
12:00 +11°C° 0 mm 4 mps 749 mmHg 50%
13:00 +11°C° 0 mm 3 mps 749 mmHg 50%
14:00 +11°C° 0 mm 3 mps 749 mmHg 49%
15:00 +11°C° 0 mm 3 mps 749 mmHg 49%
16:00 +12°C° 0 mm 2 mps 749 mmHg 51%
17:00 +12°C° 0 mm 2 mps 750 mmHg 54%
18:00 +12°C° 0 mm 2 mps 750 mmHg 57%
19:00 +10°C° 0 mm 2 mps 750 mmHg 61%
20:00 +9°C° 0 mm 2 mps 750 mmHg 65%
21:00 +8°C° 0 mm 2 mps 751 mmHg 70%
22:00 +7°C° 0 mm 2 mps 751 mmHg 72%
23:00 +7°C° 0 mm 2 mps 751 mmHg 74%

23 April, Friday

Time Temperature Precipitation Wind Pressure Humidity
00:00 +6°C° 0 mm 2 mps 751 mmHg 76%
01:00 +6°C° 0 mm 2 mps 751 mmHg 77%
02:00 +6°C° 0 mm 2 mps 751 mmHg 77%
03:00 +6°C° 0 mm 2 mps 751 mmHg 78%
04:00 +6°C° 0 mm 2 mps 751 mmHg 79%
05:00 +6°C° 0 mm 2 mps 752 mmHg 79%
06:00 +7°C° 0 mm 1 mps 752 mmHg 80%
07:00 +8°C° 0 mm 1 mps 752 mmHg 77%
08:00 +9°C° 0 mm 1 mps 752 mmHg 75%
09:00 +10°C° 0 mm 1 mps 753 mmHg 72%
10:00 +10°C° 0 mm 2 mps 753 mmHg 69%
11:00 +12°C° 0 mm 2 mps 753 mmHg 65%
12:00 +13°C° 0 mm 2 mps 753 mmHg 62%
13:00 +13°C° 0 mm 2 mps 753 mmHg 59%
14:00 +14°C° 0 mm 2 mps 753 mmHg 55%
15:00 +15°C° 0 mm 2 mps 753 mmHg 52%
16:00 +15°C° 0 mm 1 mps 753 mmHg 54%
17:00 +15°C° 0 mm 1 mps 753 mmHg 56%
18:00 +14°C° 0 mm 0 mps 753 mmHg 58%
19:00 +14°C° 0.1 mm 1 mps 753 mmHg 62%
20:00 +12°C° 0.1 mm 1 mps 753 mmHg 67%
21:00 +11°C° 0.1 mm 1 mps 753 mmHg 71%
22:00 +10°C° 0.1 mm 1 mps 753 mmHg 75%
23:00 +9°C° 0.1 mm 2 mps 754 mmHg 79%
Show more